Friday, October 24, 2014
13:37 UTC
  |  Log In   |  Register Free
Airport Search:

Live Oak County Airport
(8T6)

Live Oak County Airport Diagram
No Airport Diagram Available

FAA data valid effective September 18, 2014 - November 13, 2014 (unless otherwise noted).

 
 
 
 
 
 
 
 
 
 
 
 
 
 

Current Aviation Weather for Live Oak County Airport (8T6)

METAR data is unavailable for 8T6. The nearest METAR location is at KBEA (17.2 nm SE from 8T6).

The most recent METAR observation for KBEA was updated at: 1308
METAR Summary (Translated METAR)
KBEA
241255Z AUTO 01004KT 10SM CLR 16/16 A3013 RMK AO2 T01640161
(17.2 nm SE from 8T6)
KNOG
241256Z AUTO 36005KT 10SM CLR 17/16 A3014 RMK AO2 SLP185 T01720161
(27.9 nm SE from 8T6)
TAF Summary (Translated TAF)
KALI
(39.3 nm SW from KBEA)
241124Z 2412/2512 03005KT P6SM FEW100 FM242300 11007KT P6SM FEW060 FM250600 VRB03KT P6SM SKC
  Airport Weather Conditions for 8T6

Current weather conditions are
not available for 8T6


The nearest NOAA weather station
is at BEA, (17.2 nm SE from 8T6)
  
 Current Weather at BEA
62° F
Fair
North winds at 4.6 mph
BEA NOAA Radar

Pressure: 30.13 in
Humidity: 98%
Wind: North at 4.6 MPH (4 KT)
Dew Point: 61.0°F
Visibility: 10.00 mi


Airport Weather Forecast for 8T6

Translated METAR and TAF for KBEA
Translated METAR for KBEA (1332 UTC 24 October 2014)
found at http://aviationweather.gov/adds/metars/
 
METAR text: KBEA 241315Z AUTO 02004KT 10SM CLR 17/16 A3013 RMK AO2 T01660162
Conditions at: KBEA (BEEVILLE MUNI , TX, US) observed 1315 UTC 24 October 2014
Temperature: 16.6°C (62°F)
Dewpoint: 16.2°C (61°F) [RH = 97%]
Pressure (altimeter): 30.13 inches Hg (1020.4 mb)
Winds: from the NNE (20 degrees) at 5 MPH (4 knots; 2.1 m/s)
Visibility: 10 or more miles (16+ km)
Ceiling: at least 12,000 feet AGL
Clouds: sky clear below 12,000 feet AGL
Weather: automated observation with no human augmentation;
there may or may not be significant weather present at this time
Translated TAF for KBEA

There is no translated TAF available for this airport

Find All Airport Services Find A Hotel Find A Rental Car Find A Golf Course Find A Restaurant $100 Hamburger



FBO's on the Field
FBO Company Facility Photos Services Transportation Aviation Fuel Prices: Prices include tax
Catering Weather Repair Courtesy Rental Type 100LL JetA JetA+ MOGAS 8087
 
Live Oak Co. Airport

This FBO has not yet been rated
FS:Avfuel
Last Updated: Oct-09
Login to update fuel prices
SS:
Contact Live Oak Co. AirportMore FBO Information
 
Add another FBO Facility Photos Catering Weather Repair Courtesy Rental Type 100LL JetA JetA+ MOGAS 8087
Services Transportation Aviation Fuel Prices: Prices include tax


model-print
model-print
model-print
model-print